Weather History for KGEV - August, 2013

Change the Weather History Date:

Friday, August 2, 2013

  Actual Average Record
Temperature  
Mean Temperature 68 °F -  
Max Temperature 77 °F 79 °F 89 °F (2006)
Min Temperature 58 °F 57 °F 52 °F (1966)
Cooling Degree Days 2    
Growing Degree Days 18 (Base 50)    
Moisture  
Dew Point 54 °F    
Average Humidity 62    
Maximum Humidity 93    
Minimum Humidity 38    
Precipitation  
Precipitation 0.00 in - - ()
Sea Level Pressure  
Sea Level Pressure 30.13 in    
Wind  
Wind Speed 3 mph (WNW)    
Max Wind Speed 10 mph    
Max Gust Speed -    
Visibility 10 miles    
Events      
Averages and records for this station are not official NWS values.
T = Trace of Precipitation, MM = Missing Value Source: NWS Daily Summary

Daily Weather History Graph

Daily Weather History Graph

Search for Another Location

Airport or City:

Trip Planner

Search our weather history database for the weather conditions in past years. The results will help you decide how hot, cold, wet, or windy it might be!

Date:

Astronomy

Aug. 02, 2013 Rise Set
Actual Time 6:33 AM EDT 8:30 PM EDT
Civil Twilight 6:04 AM EDT 8:58 PM EDT
Nautical Twilight 5:30 AM EDT 9:32 PM EDT
Astronomical Twilight 4:53 AM EDT 10:09 PM EDT
Moon 2:54 AM EDT (8/2) 5:25 PM EDT (8/2)
Length of Visible Light 14h 53m
Length of Day
13h 57m
Waning Crescent, 16% of the Moon is Illuminated
Aug 2
Waning Crescent
Aug 6
New
Aug 14
First Quarter
Aug 20
Full
Aug 28
Last Quarter

Hourly Weather History & Observations

Time (EDT) Temp. Dew Point Humidity Pressure Visibility Wind Dir Wind Speed Gust Speed Precip Events Conditions
12:15 AM 66.0 °F 56.3 °F 71% 30.09 in 10.0 mi Calm Calm - N/A   Clear
12:35 AM 65.7 °F 56.3 °F 72% 30.09 in 10.0 mi NW 4.6 mph - N/A   Clear
12:55 AM 65.5 °F 56.3 °F 72% 30.09 in 10.0 mi NW 4.6 mph - N/A   Clear
1:15 AM 66.0 °F 56.3 °F 71% 30.09 in 10.0 mi NW 4.6 mph - N/A   Clear
1:35 AM 65.7 °F 56.7 °F 73% 30.09 in 10.0 mi NW 4.6 mph - N/A   Clear
1:55 AM 65.3 °F 56.8 °F 74% 30.09 in 10.0 mi Calm Calm - N/A   Clear
2:15 AM 65.1 °F 57.0 °F 75% 30.09 in 10.0 mi WNW 3.5 mph - N/A   Clear
2:55 AM 64.6 °F 57.0 °F 76% 30.08 in 10.0 mi WNW 4.6 mph - N/A   Clear
3:15 AM 63.7 °F 56.7 °F 78% 30.08 in 10.0 mi Calm Calm - N/A   Clear
3:35 AM 63.5 °F 57.2 °F 80% 30.07 in 10.0 mi Calm Calm - N/A   Clear
3:55 AM 63.3 °F 56.7 °F 79% 30.07 in 10.0 mi Calm Calm - N/A   Clear
4:15 AM 62.6 °F 56.8 °F 81% 30.08 in 10.0 mi Calm Calm - N/A   Clear
4:55 AM 61.7 °F 58.3 °F 89% 30.09 in 10.0 mi Calm Calm - N/A   Clear
5:15 AM 61.0 °F 58.1 °F 90% 30.09 in 10.0 mi NE 3.5 mph - N/A   Clear
5:35 AM 60.3 °F 57.6 °F 91% 30.09 in 7.0 mi NNE 3.5 mph - N/A   Clear
5:55 AM 59.9 °F 57.2 °F 91% 30.10 in 7.0 mi Calm Calm - N/A   Clear
6:15 AM 59.7 °F 57.4 °F 92% 30.10 in 7.0 mi Calm Calm - N/A   Clear
6:35 AM 59.0 °F 56.8 °F 93% 30.10 in 5.0 mi Calm Calm - N/A   Clear
6:55 AM 58.8 °F 56.8 °F 93% 30.11 in 2.5 mi Calm Calm - N/A   Clear
7:15 AM 59.9 °F 56.8 °F 90% 30.11 in 10.0 mi WNW 3.5 mph - N/A   Clear
7:35 AM 61.2 °F 56.1 °F 83% 30.12 in 10.0 mi Calm Calm - N/A   Clear
7:55 AM 61.7 °F 56.7 °F 84% 30.12 in 10.0 mi Calm Calm - N/A   Clear
8:15 AM 62.6 °F 56.7 °F 81% 30.12 in 10.0 mi NNW 6.9 mph - N/A   Clear
8:35 AM 64.8 °F 53.8 °F 68% 30.13 in 10.0 mi NNW 8.1 mph - N/A   Clear
8:55 AM 64.9 °F 55.2 °F 71% 30.13 in 10.0 mi NNW 8.1 mph - N/A   Clear
9:15 AM 65.3 °F 54.7 °F 68% 30.14 in 10.0 mi NNW 10.4 mph - N/A   Clear
9:35 AM 66.0 °F 54.3 °F 66% 30.13 in 10.0 mi NNW 5.8 mph - N/A   Clear
9:55 AM 66.2 °F 54.0 °F 65% 30.14 in 10.0 mi NNW 3.5 mph - N/A   Clear
10:15 AM 67.3 °F 52.9 °F 60% 30.14 in 10.0 mi NNW 4.6 mph - N/A   Clear
10:35 AM 68.0 °F 53.6 °F 60% 30.14 in 10.0 mi Calm Calm - N/A   Clear
10:55 AM 68.7 °F 55.2 °F 62% 30.15 in 10.0 mi Calm Calm - N/A   Clear
11:15 AM 69.8 °F 56.1 °F 62% 30.15 in 10.0 mi Calm Calm - N/A   Clear
11:35 AM 71.8 °F 50.9 °F 48% 30.16 in 10.0 mi WNW 4.6 mph - N/A   Clear
11:55 AM 72.0 °F 51.4 °F 48% 30.16 in 10.0 mi WNW 4.6 mph - N/A   Clear
12:15 PM 73.2 °F 51.8 °F 47% 30.17 in 10.0 mi West 4.6 mph - N/A   Clear
12:35 PM 73.6 °F 50.7 °F 45% 30.16 in 10.0 mi WNW 8.1 mph - N/A   Clear
12:55 PM 73.6 °F 50.7 °F 45% 30.17 in 10.0 mi West 8.1 mph - N/A   Clear
1:15 PM 74.3 °F 51.3 °F 44% 30.17 in 10.0 mi NW 5.8 mph - N/A   Clear
1:35 PM 74.7 °F 48.6 °F 40% 30.16 in 10.0 mi WNW 3.5 mph - N/A   Clear
1:55 PM 74.5 °F 48.7 °F 40% 30.15 in 10.0 mi NW 5.8 mph - N/A   Clear
2:15 PM 76.1 °F 50.2 °F 40% 30.15 in 10.0 mi WNW 6.9 mph - N/A   Clear
2:35 PM 76.1 °F 50.5 °F 41% 30.15 in 10.0 mi WSW 4.6 mph - N/A   Clear
2:55 PM 77.2 °F 49.5 °F 38% 30.15 in 10.0 mi West 4.6 mph - N/A   Scattered Clouds
3:15 PM 77.0 °F 50.0 °F 39% 30.14 in 10.0 mi WNW 4.6 mph - N/A   Scattered Clouds
3:35 PM 77.0 °F 49.6 °F 38% 30.14 in 10.0 mi West 8.1 mph - N/A   Clear
3:55 PM 77.5 °F 50.5 °F 39% 30.14 in 10.0 mi West 6.9 mph - N/A   Clear
4:15 PM 76.8 °F 49.8 °F 39% 30.14 in 10.0 mi West 4.6 mph - N/A   Clear
4:35 PM 76.1 °F 50.2 °F 40% 30.14 in 10.0 mi WNW 5.8 mph - N/A   Scattered Clouds
4:55 PM 75.9 °F 50.5 °F 41% 30.14 in 10.0 mi WNW 4.6 mph - N/A   Clear
5:15 PM 77.0 °F 50.5 °F 39% 30.14 in 10.0 mi West 8.1 mph - N/A   Clear
5:35 PM 76.3 °F 55.4 °F 48% 30.14 in 10.0 mi West 4.6 mph - N/A   Scattered Clouds
5:55 PM 76.5 °F 49.6 °F 39% 30.14 in 10.0 mi West 4.6 mph - N/A   Scattered Clouds
6:15 PM 76.1 °F 52.5 °F 44% 30.14 in 10.0 mi WNW 9.2 mph - N/A   Clear
6:35 PM 75.0 °F 53.6 °F 47% 30.14 in 10.0 mi WNW 6.9 mph - N/A   Clear
6:55 PM 74.3 °F 54.3 °F 50% 30.14 in 10.0 mi West 5.8 mph - N/A   Clear
7:15 PM 73.6 °F 54.3 °F 51% 30.14 in 10.0 mi West 4.6 mph - N/A   Clear
7:35 PM 73.0 °F 54.1 °F 51% 30.14 in 10.0 mi West 4.6 mph - N/A   Clear
7:55 PM 72.5 °F 53.6 °F 51% 30.15 in 10.0 mi WNW 5.8 mph - N/A   Clear
8:15 PM 69.1 °F 55.8 °F 62% 30.14 in 10.0 mi Calm Calm - N/A   Clear
8:35 PM 69.4 °F 56.5 °F 63% 30.14 in 10.0 mi Calm Calm - N/A   Clear
8:55 PM 68.7 °F 55.9 °F 64% 30.15 in 10.0 mi Calm Calm - N/A   Clear
9:15 PM 68.5 °F 57.4 °F 67% 30.16 in 10.0 mi Calm Calm - N/A   Clear
9:35 PM 69.6 °F 55.4 °F 61% 30.16 in 7.0 mi Calm Calm - N/A   Clear
9:55 PM 69.4 °F 53.1 °F 56% 30.17 in 10.0 mi Calm Calm - N/A   Clear
10:15 PM 68.2 °F 54.3 °F 61% 30.17 in 10.0 mi Calm Calm - N/A   Clear
10:35 PM 66.4 °F 55.0 °F 67% 30.17 in 10.0 mi Calm Calm - N/A   Clear
10:55 PM 65.5 °F 57.0 °F 74% 30.17 in 10.0 mi Calm Calm - N/A   Clear
11:15 PM 66.7 °F 53.8 °F 63% 30.17 in 10.0 mi Calm Calm - N/A   Clear
11:35 PM 66.2 °F 54.0 °F 65% 30.17 in 10.0 mi West 3.5 mph - N/A   Clear
11:55 PM 63.5 °F 55.4 °F 75% 30.17 in 10.0 mi Calm Calm - N/A   Clear